Weather History for Rome, GA

Change the Weather History Date:

Tuesday, April 24, 2012

  Actual Average Record
Temperature  
Mean Temperature 52 °F 62 °F  
Max Temperature 69 °F 75 °F 89 °F (2004)
Min Temperature 35 °F 49 °F 34 °F (2005)
Degree Days  
Heating Degree Days 13 5  
Month to date heating degree days 165  
Since 1 July heating degree days 3192  
Cooling Degree Days 0 1  
Month to date cooling degree days 20  
Year to date cooling degree days 24  
Growing Degree Days 2 (Base 50)    
Moisture  
Dew Point 35 °F    
Average Humidity 54    
Maximum Humidity 86    
Minimum Humidity 19    
Precipitation  
Precipitation 0.00 in 0.15 in 0.28 in (2003)
Month to date precipitation 3.09  
Year to date precipitation 17.73  
Snow  
Snow 0.00 in - - ()
Month to date snowfall  
Since 1 July snowfall  
Snow Depth -    
Sea Level Pressure  
Sea Level Pressure 29.90 in    
Wind  
Wind Speed 3 mph (West)    
Max Wind Speed 16 mph    
Max Gust Speed 25 mph    
Visibility 10 miles    
Events      
T = Trace of Precipitation, MM = Missing Value Source: NWS Daily Summary

Daily Weather History Graph

Daily Weather History Graph

Search for Another Location

Airport:

Trip Planner

Search our weather history database for the weather conditions in past years. The results will help you decide how hot, cold, wet, or windy it might be!

Date:

Astronomy

Apr. 24, 2012 Rise Set
Actual Time 6:57 AM EDT 8:19 PM EDT
Civil Twilight 6:31 AM EDT 8:46 PM EDT
Nautical Twilight 6:00 AM EDT 9:17 PM EDT
Astronomical Twilight 5:27 AM EDT 9:50 PM EDT
Moon 8:59 AM EDT (4/24) 11:32 PM EDT (4/24)
Length of Visible Light 14h 14m
Length of Day
13h 21m
Waxing Crescent, 10% of the Moon is Illuminated
Apr 24
Waxing Crescent
Apr 29
First Quarter
May 5
Full
May 12
Last Quarter
May 20
New

Hourly Weather History & Observations

Time (EDT) Temp. Dew Point Humidity Pressure Visibility Wind Dir Wind Speed Gust Speed Precip Events Conditions
12:53 AM 45.0 °F 30.0 °F 56% 29.90 in 10.0 mi Calm Calm - N/A   Clear
1:53 AM 41.0 °F 32.0 °F 70% 29.89 in 10.0 mi Calm Calm - N/A   Clear
2:53 AM 39.9 °F 33.1 °F 77% 29.89 in 10.0 mi Calm Calm - N/A   Clear
3:53 AM 37.9 °F 32.0 °F 79% 29.88 in 10.0 mi Calm Calm - N/A   Clear
4:53 AM 37.9 °F 32.0 °F 79% 29.88 in 10.0 mi Calm Calm - N/A   Clear
5:53 AM 35.1 °F 30.9 °F 85% 29.89 in 10.0 mi Calm Calm - N/A   Clear
6:53 AM 36.0 °F 32.0 °F 86% 29.91 in 10.0 mi Calm Calm - N/A   Clear
7:53 AM 39.0 °F 34.0 °F 82% 29.92 in 10.0 mi Calm Calm - N/A   Clear
8:53 AM 51.1 °F 36.0 °F 56% 29.93 in 10.0 mi West 5.8 mph - N/A   Clear
9:53 AM 55.0 °F 35.1 °F 47% 29.94 in 10.0 mi WNW 10.4 mph 16.1 mph N/A   Clear
10:53 AM 61.0 °F 37.0 °F 41% 29.94 in 10.0 mi WNW 10.4 mph - N/A   Clear
11:53 AM 62.1 °F 37.0 °F 39% 29.94 in 10.0 mi West 10.4 mph - N/A   Mostly Cloudy
12:53 PM 64.9 °F 32.0 °F 29% 29.93 in 10.0 mi NW 16.1 mph 25.3 mph N/A   Scattered Clouds
1:53 PM 66.0 °F 34.0 °F 30% 29.92 in 10.0 mi West 8.1 mph 20.7 mph N/A   Mostly Cloudy
2:53 PM 64.9 °F 33.1 °F 31% 29.91 in 10.0 mi WNW 9.2 mph 17.3 mph N/A   Mostly Cloudy
3:53 PM 66.0 °F 35.1 °F 32% 29.89 in 10.0 mi West 10.4 mph 17.3 mph N/A   Mostly Cloudy
4:53 PM 66.9 °F 36.0 °F 32% 29.88 in 10.0 mi West 6.9 mph - N/A   Mostly Cloudy
5:53 PM 68.0 °F 37.0 °F 32% 29.88 in 10.0 mi West 9.2 mph - N/A   Mostly Cloudy
6:53 PM 66.0 °F 37.9 °F 36% 29.87 in 10.0 mi West 5.8 mph - N/A   Scattered Clouds
7:53 PM 63.0 °F 39.0 °F 41% 29.88 in 10.0 mi WSW 5.8 mph - N/A   Partly Cloudy
8:53 PM 60.1 °F 39.9 °F 47% 29.88 in 10.0 mi West 3.5 mph - N/A   Mostly Cloudy
9:53 PM 54.0 °F 42.1 °F 64% 29.88 in 10.0 mi SSW 3.5 mph - N/A   Clear
10:53 PM 51.1 °F 43.0 °F 74% 29.89 in 10.0 mi WNW 3.5 mph - N/A   Clear
11:53 PM 48.9 °F 43.0 °F 80% 29.88 in 10.0 mi Calm Calm - N/A   Clear